| time (UTC) | temp F | wind direction | speed MPH | gust MPH | rain 1hr in | rain 24hr in | rain mn in | humidity % | barometer mb |
| 20260508034143 | 60 | 244 | 4.0 | 14.0 | 0.00 | 0.00 | 0.00 | 69 | 1016.0 |
| 20260508033124 | 60 | 241 | 2.0 | 6.0 | 0.00 | 0.00 | 0.00 | 67 | 1015.9 |
| 20260508032122 | 61 | 230 | 3.0 | 13.0 | 0.00 | 0.00 | 0.00 | 66 | 1015.7 |
| 20260508031125 | 61 | 238 | 3.0 | 13.0 | 0.00 | 0.00 | 0.00 | 65 | 1015.8 |
| 20260508030124 | 62 | 228 | 5.0 | 14.0 | 0.00 | 0.00 | 0.00 | 63 | 1015.8 |
| 20260508025122 | 62 | 225 | 4.0 | 11.0 | 0.00 | 0.00 | 0.00 | 64 | 1015.8 |
| 20260508024123 | 63 | 232 | 4.0 | 13.0 | 0.00 | 0.00 | 0.00 | 62 | 1015.9 |
| 20260508023124 | 63 | 252 | 2.0 | 11.0 | 0.00 | 0.00 | 0.00 | 62 | 1015.8 |
| 20260508022123 | 64 | 220 | 4.0 | 11.0 | 0.00 | 0.00 | 0.00 | 62 | 1015.8 |
| 20260508021123 | 64 | 213 | 2.0 | 10.0 | 0.00 | 0.00 | 0.00 | 63 | 1015.7 |
| 20260508020122 | 64 | 221 | 4.0 | 11.0 | 0.00 | 0.00 | 0.00 | 63 | 1015.7 |
| 20260508015143 | 64 | 226 | 5.0 | 16.0 | 0.00 | 0.00 | 0.00 | 63 | 1015.8 |
| 20260508014123 | 65 | 268 | 3.0 | 13.0 | 0.00 | 0.00 | 0.00 | 63 | 1015.8 |
| 20260508013124 | 65 | 265 | 3.0 | 13.0 | 0.00 | 0.00 | 0.00 | 63 | 1015.9 |
| 20260508012145 | 65 | 246 | 3.0 | 13.0 | 0.00 | 0.00 | 0.00 | 63 | 1015.8 |
| 20260508011122 | 66 | 251 | 4.0 | 13.0 | 0.00 | 0.00 | 0.00 | 62 | 1016.1 |
| 20260508010143 | 66 | 222 | 3.0 | 13.0 | 0.00 | 0.00 | 0.00 | 61 | 1016.3 |
| 20260508005122 | 67 | 293 | 3.0 | 13.0 | 0.00 | 0.00 | 0.00 | 61 | 1016.3 |
| 20260508004124 | 66 | 297 | 4.0 | 18.0 | 0.00 | 0.00 | 0.00 | 61 | 1016.5 |
| 20260508003145 | 67 | 304 | 5.0 | 14.0 | 0.00 | 0.00 | 0.00 | 60 | 1016.4 |
| 20260508002124 | 67 | 295 | 4.0 | 14.0 | 0.00 | 0.00 | 0.00 | 60 | 1016.4 |
| 20260508001122 | 67 | 281 | 3.0 | 13.0 | 0.00 | 0.00 | 0.00 | 60 | 1016.3 |
| 20260508000122 | 66 | 282 | 4.0 | 16.0 | 0.00 | 0.00 | 0.00 | 61 | 1016.3 |
| 20260507235145 | 67 | 293 | 4.0 | 18.0 | 0.00 | 0.00 | 0.00 | 61 | 1016.3 |
| 20260507234122 | 66 | 277 | 4.0 | 18.0 | 0.00 | 0.00 | 0.00 | 60 | 1016.3 |
| 20260507233125 | 66 | 288 | 5.0 | 18.0 | 0.00 | 0.00 | 0.00 | 62 | 1016.3 |
| 20260507232122 | 66 | 278 | 6.0 | 19.0 | 0.00 | 0.00 | 0.00 | 63 | 1016.5 |
| 20260507231145 | 66 | 283 | 5.0 | 18.0 | 0.00 | 0.00 | 0.00 | 61 | 1016.4 |
| 20260507230122 | 67 | 274 | 4.0 | 16.0 | 0.00 | 0.00 | 0.00 | 61 | 1016.4 |
| 20260507225122 | 66 | 264 | 3.0 | 13.0 | 0.00 | 0.00 | 0.00 | 62 | 1016.5 |
| 20260507224122 | 65 | 270 | 4.0 | 13.0 | 0.00 | 0.00 | 0.00 | 63 | 1016.5 |
| 20260507223124 | 66 | 256 | 3.0 | 13.0 | 0.00 | 0.00 | 0.00 | 62 | 1016.7 |
| 20260507222124 | 67 | 247 | 3.0 | 13.0 | 0.00 | 0.00 | 0.00 | 60 | 1016.8 |
| 20260507221124 | 67 | 278 | 3.0 | 11.0 | 0.00 | 0.00 | 0.00 | 60 | 1016.8 |
| 20260507220143 | 67 | 278 | 1.0 | 11.0 | 0.00 | 0.00 | 0.00 | 59 | 1017.0 |
| 20260507215122 | 67 | 310 | 2.0 | 11.0 | 0.00 | 0.00 | 0.00 | 59 | 1017.1 |
| 20260507214143 | 66 | 266 | 3.0 | 11.0 | 0.00 | 0.00 | 0.00 | 61 | 1017.3 |
| 20260507213122 | 66 | 242 | 1.0 | 8.0 | 0.00 | 0.00 | 0.00 | 61 | 1017.4 |
| 20260507212122 | 66 | 10 | 3.0 | 8.0 | 0.00 | 0.00 | 0.00 | 60 | 1017.5 |
| 20260507211122 | 66 | 32 | 2.0 | 13.0 | 0.00 | 0.00 | 0.00 | 60 | 1017.5 |
| 20260507210124 | 65 | 296 | 2.0 | 10.0 | 0.00 | 0.00 | 0.00 | 62 | 1017.6 |
| 20260507205124 | 64 | 15 | 4.0 | 13.0 | 0.00 | 0.00 | 0.00 | 62 | 1017.6 |
| 20260507204145 | 64 | 357 | 3.0 | 8.0 | 0.00 | 0.00 | 0.00 | 63 | 1017.8 |
| 20260507203122 | 64 | 328 | 3.0 | 8.0 | 0.00 | 0.00 | 0.00 | 63 | 1018.0 |
| 20260507202122 | 63 | 299 | 2.0 | 8.0 | 0.00 | 0.00 | 0.00 | 64 | 1018.2 |
| 20260507201124 | 63 | 318 | 4.0 | 13.0 | 0.00 | 0.00 | 0.00 | 66 | 1018.3 |
| 20260507200123 | 63 | 359 | 3.0 | 13.0 | 0.00 | 0.00 | 0.00 | 64 | 1018.4 |
| 20260507195143 | 63 | 18 | 4.0 | 13.0 | 0.00 | 0.00 | 0.00 | 64 | 1018.5 |
| 20260507194124 | 62 | 14 | 3.0 | 8.0 | 0.00 | 0.00 | 0.00 | 66 | 1018.6 |
| 20260507193122 | 62 | 23 | 4.0 | 13.0 | 0.00 | 0.00 | 0.00 | 66 | 1018.7 |
| 20260507192122 | 61 | 17 | 4.0 | 10.0 | 0.00 | 0.00 | 0.00 | 67 | 1018.6 |
| 20260507191122 | 61 | 18 | 2.0 | 8.0 | 0.00 | 0.00 | 0.00 | 67 | 1018.7 |
| 20260507190124 | 61 | 31 | 2.0 | 8.0 | 0.00 | 0.00 | 0.00 | 66 | 1018.8 |
| 20260507185124 | 61 | 30 | 2.0 | 6.0 | 0.00 | 0.00 | 0.00 | 67 | 1019.0 |
| 20260507184145 | 61 | 12 | 2.0 | 6.0 | 0.00 | 0.00 | 0.00 | 68 | 1019.1 |
| 20260507183122 | 60 | 20 | 2.0 | 6.0 | 0.00 | 0.00 | 0.00 | 69 | 1019.0 |
| 20260507182124 | 60 | 24 | 3.0 | 6.0 | 0.00 | 0.00 | 0.00 | 69 | 1019.2 |
| 20260507181143 | 60 | 37 | 2.0 | 6.0 | 0.00 | 0.00 | 0.00 | 69 | 1019.3 |
| 20260507180122 | 59 | 21 | 1.0 | 6.0 | 0.00 | 0.00 | 0.00 | 70 | 1019.4 |
| 20260507175143 | 58 | 340 | 1.0 | 5.0 | 0.00 | 0.00 | 0.00 | 71 | 1019.6 |
| 20260507174125 | 58 | 25 | 2.0 | 6.0 | 0.00 | 0.00 | 0.00 | 71 | 1019.7 |
| 20260507173122 | 58 | 53 | 1.0 | 5.0 | 0.00 | 0.00 | 0.00 | 71 | 1019.7 |
| 20260507172124 | 58 | 55 | 1.0 | 5.0 | 0.00 | 0.00 | 0.00 | 71 | 1019.7 |
| 20260507171122 | 58 | 58 | 1.0 | 5.0 | 0.00 | 0.00 | 0.00 | 71 | 1019.7 |
| 20260507170122 | 58 | 63 | 2.0 | 6.0 | 0.00 | 0.00 | 0.00 | 71 | 1019.7 |
| 20260507165124 | 58 | 66 | 2.0 | 6.0 | 0.00 | 0.00 | 0.00 | 71 | 1019.7 |
| 20260507164124 | 58 | 64 | 2.0 | 8.0 | 0.00 | 0.00 | 0.00 | 72 | 1019.7 |
| 20260507163123 | 58 | 72 | 1.0 | 6.0 | 0.00 | 0.00 | 0.00 | 71 | 1019.6 |
| 20260507162123 | 58 | 85 | 2.0 | 6.0 | 0.00 | 0.00 | 0.00 | 72 | 1019.6 |
| 20260507161145 | 58 | 70 | 1.0 | 5.0 | 0.00 | 0.00 | 0.00 | 72 | 1019.7 |
| 20260507160124 | 57 | 128 | 2.0 | 6.0 | 0.00 | 0.00 | 0.00 | 73 | 1019.7 |
| 20260507155122 | 57 | 147 | 2.0 | 8.0 | 0.00 | 0.00 | 0.00 | 74 | 1019.7 |
| 20260507154145 | 56 | 134 | 2.0 | 8.0 | 0.00 | 0.00 | 0.00 | 76 | 1019.7 |
| 20260507153122 | 56 | 128 | 2.0 | 11.0 | 0.00 | 0.00 | 0.00 | 75 | 1019.8 |
| 20260507152122 | 56 | 146 | 1.0 | 6.0 | 0.00 | 0.00 | 0.00 | 77 | 1019.9 |
| 20260507151124 | 55 | 132 | 1.0 | 6.0 | 0.00 | 0.00 | 0.00 | 77 | 1020.0 |
| 20260507150124 | 55 | 145 | 3.0 | 11.0 | 0.00 | 0.00 | 0.00 | 76 | 1019.9 |
| 20260507145122 | 55 | 116 | 1.0 | 5.0 | 0.00 | 0.00 | 0.00 | 78 | 1019.9 |
| 20260507144124 | 55 | 116 | 1.0 | 11.0 | 0.00 | 0.00 | 0.00 | 79 | 1019.9 |
| 20260507143124 | 54 | 135 | 2.0 | 8.0 | 0.00 | 0.00 | 0.00 | 79 | 1019.8 |
| 20260507142145 | 54 | 131 | 4.0 | 13.0 | 0.00 | 0.00 | 0.00 | 79 | 1019.9 |
| 20260507141124 | 54 | 127 | 3.0 | 8.0 | 0.00 | 0.00 | 0.00 | 80 | 1019.7 |
| 20260507140122 | 54 | 140 | 1.0 | 6.0 | 0.00 | 0.00 | 0.00 | 80 | 1019.8 |
| 20260507135143 | 53 | 150 | 2.0 | 8.0 | 0.00 | 0.00 | 0.00 | 81 | 1019.8 |
| 20260507134122 | 53 | 146 | 4.0 | 13.0 | 0.00 | 0.00 | 0.00 | 81 | 1019.6 |
| 20260507133122 | 53 | 147 | 3.0 | 11.0 | 0.00 | 0.00 | 0.00 | 82 | 1019.6 |
| 20260507132124 | 54 | 135 | 3.0 | 11.0 | 0.00 | 0.00 | 0.00 | 82 | 1019.7 |
| 20260507131122 | 54 | 126 | 3.0 | 10.0 | 0.00 | 0.00 | 0.00 | 82 | 1019.7 |
| 20260507130122 | 54 | 125 | 1.0 | 6.0 | 0.00 | 0.00 | 0.00 | 82 | 1019.7 |
| 20260507125124 | 54 | 126 | 2.0 | 8.0 | 0.00 | 0.00 | 0.00 | 82 | 1019.5 |
| 20260507124122 | 54 | 124 | 3.0 | 8.0 | 0.00 | 0.00 | 0.00 | 82 | 1019.5 |
| 20260507123148 | 54 | 130 | 3.0 | 10.0 | 0.00 | 0.00 | 0.00 | 82 | 1019.5 |
| 20260507123143 | 54 | 129 | 3.0 | 10.0 | 0.00 | 0.00 | 0.00 | 82 | 1019.5 |
| 20260507122123 | 54 | 136 | 4.0 | 13.0 | 0.00 | 0.00 | 0.00 | 83 | 1019.5 |
| 20260507121143 | 54 | 122 | 5.0 | 13.0 | 0.00 | 0.00 | 0.00 | 83 | 1019.7 |
| 20260507120124 | 54 | 124 | 5.0 | 13.0 | 0.00 | 0.00 | 0.00 | 83 | 1019.8 |
| 20260507115124 | 54 | 129 | 5.0 | 13.0 | 0.00 | 0.00 | 0.00 | 83 | 1019.9 |
| 20260507114124 | 54 | 124 | 4.0 | 11.0 | 0.00 | 0.00 | 0.00 | 84 | 1019.9 |
| 20260507113124 | 54 | 127 | 3.0 | 10.0 | 0.00 | 0.00 | 0.00 | 84 | 1019.8 |
| 20260507112122 | 54 | 129 | 4.0 | 11.0 | 0.00 | 0.00 | 0.00 | 84 | 1019.8 |
| 20260507111122 | 54 | 128 | 4.0 | 11.0 | 0.00 | 0.00 | 0.00 | 84 | 1019.9 |
| 20260507110149 | 54 | 127 | 4.0 | 10.0 | 0.00 | 0.00 | 0.00 | 84 | 1019.8 |
| 20260507110144 | 54 | 127 | 3.0 | 10.0 | 0.00 | 0.00 | 0.00 | 84 | 1019.9 |
| 20260507105122 | 54 | 124 | 3.0 | 10.0 | 0.00 | 0.00 | 0.00 | 84 | 1019.9 |
| 20260507104122 | 54 | 128 | 3.0 | 8.0 | 0.00 | 0.00 | 0.00 | 84 | 1019.8 |
| 20260507103122 | 54 | 126 | 4.0 | 11.0 | 0.00 | 0.00 | 0.00 | 84 | 1019.8 |
| 20260507102124 | 54 | 127 | 3.0 | 8.0 | 0.00 | 0.00 | 0.00 | 83 | 1019.7 |
| 20260507101122 | 54 | 124 | 3.0 | 11.0 | 0.00 | 0.00 | 0.00 | 83 | 1019.6 |
| 20260507100122 | 55 | 123 | 2.0 | 6.0 | 0.00 | 0.00 | 0.00 | 83 | 1019.7 |
| 20260507095124 | 54 | 128 | 3.0 | 8.0 | 0.00 | 0.00 | 0.00 | 83 | 1019.8 |
| 20260507094125 | 54 | 125 | 3.0 | 10.0 | 0.00 | 0.00 | 0.00 | 83 | 1019.8 |
| 20260507093122 | 55 | 128 | 3.0 | 10.0 | 0.00 | 0.00 | 0.00 | 83 | 1019.8 |
| 20260507092124 | 55 | 130 | 3.0 | 8.0 | 0.00 | 0.00 | 0.00 | 83 | 1019.8 |
| 20260507091122 | 55 | 126 | 2.0 | 6.0 | 0.00 | 0.00 | 0.00 | 82 | 1019.7 |
| 20260507090123 | 55 | 126 | 2.0 | 8.0 | 0.00 | 0.00 | 0.00 | 82 | 1019.7 |
| 20260507085122 | 55 | 120 | 1.0 | 6.0 | 0.00 | 0.00 | 0.00 | 82 | 1019.6 |
| 20260507084122 | 55 | 122 | 1.0 | 5.0 | 0.00 | 0.00 | 0.00 | 82 | 1019.6 |
| 20260507083122 | 55 | 124 | 3.0 | 8.0 | 0.00 | 0.00 | 0.00 | 82 | 1019.4 |
| 20260507082128 | 55 | 125 | 3.0 | 10.0 | 0.00 | 0.00 | 0.00 | 82 | 1019.4 |
| 20260507082123 | 55 | 126 | 3.0 | 10.0 | 0.00 | 0.00 | 0.00 | 82 | 1019.4 |
| 20260507081123 | 55 | 125 | 4.0 | 11.0 | 0.00 | 0.00 | 0.00 | 82 | 1019.4 |
| 20260507080124 | 55 | 127 | 4.0 | 11.0 | 0.00 | 0.00 | 0.00 | 82 | 1019.3 |
| 20260507075122 | 55 | 124 | 4.0 | 11.0 | 0.00 | 0.00 | 0.00 | 82 | 1019.3 |
| 20260507074124 | 55 | 124 | 3.0 | 8.0 | 0.00 | 0.00 | 0.00 | 82 | 1019.3 |
| 20260507073122 | 55 | 130 | 3.0 | 10.0 | 0.00 | 0.00 | 0.00 | 81 | 1019.2 |
| 20260507072124 | 56 | 125 | 3.0 | 8.0 | 0.00 | 0.00 | 0.00 | 81 | 1019.1 |
| 20260507071122 | 56 | 127 | 2.0 | 6.0 | 0.00 | 0.00 | 0.00 | 80 | 1019.1 |
| 20260507070124 | 56 | 126 | 1.0 | 5.0 | 0.00 | 0.00 | 0.00 | 81 | 1019.0 |
| 20260507065122 | 56 | 127 | 1.0 | 5.0 | 0.00 | 0.00 | 0.00 | 80 | 1019.0 |
| 20260507064124 | 56 | 130 | 2.0 | 6.0 | 0.00 | 0.00 | 0.00 | 80 | 1019.0 |
| 20260507063122 | 56 | 121 | 2.0 | 6.0 | 0.00 | 0.00 | 0.00 | 80 | 1019.0 |
| 20260507062145 | 56 | 107 | 1.0 | 6.0 | 0.00 | 0.00 | 0.00 | 79 | 1019.0 |
| 20260507061124 | 56 | 130 | 2.0 | 5.0 | 0.00 | 0.00 | 0.00 | 79 | 1019.0 |
| 20260507060145 | 56 | 148 | 2.0 | 5.0 | 0.00 | 0.00 | 0.00 | 79 | 1018.9 |
| 20260507055124 | 56 | 133 | 3.0 | 8.0 | 0.00 | 0.00 | 0.00 | 79 | 1018.9 |
| 20260507054122 | 56 | 126 | 3.0 | 10.0 | 0.00 | 0.00 | 0.00 | 80 | 1018.9 |
| 20260507053122 | 56 | 113 | 2.0 | 6.0 | 0.00 | 0.00 | 0.00 | 80 | 1018.9 |
| 20260507052124 | 56 | 123 | 3.0 | 10.0 | 0.00 | 0.00 | 0.00 | 79 | 1018.9 |
| 20260507051122 | 56 | 109 | 2.0 | 6.0 | 0.00 | 0.00 | 0.00 | 79 | 1018.9 |
| 20260507050122 | 56 | 110 | 2.0 | 6.0 | 0.00 | 0.00 | 0.00 | 78 | 1018.8 |
| 20260507045122 | 57 | 124 | 2.0 | 6.0 | 0.00 | 0.00 | 0.00 | 78 | 1018.8 |
| 20260507044143 | 57 | 128 | 3.0 | 8.0 | 0.00 | 0.00 | 0.00 | 78 | 1018.8 |
| 20260507043124 | 57 | 117 | 2.0 | 8.0 | 0.00 | 0.00 | 0.00 | 78 | 1018.8 |
| 20260507042124 | 57 | 123 | 2.0 | 6.0 | 0.00 | 0.00 | 0.00 | 78 | 1018.8 |
| 20260507041122 | 57 | 125 | 2.0 | 6.0 | 0.00 | 0.00 | 0.00 | 77 | 1018.7 |
| 20260507040146 | 57 | 111 | 1.0 | 5.0 | 0.00 | 0.00 | 0.00 | 77 | 1018.8 |
| 20260507035122 | 57 | 110 | 0.0 | 3.0 | 0.00 | 0.00 | 0.00 | 76 | 1018.7 |